Location: Cosy Dell
(34.2789°N, 117.4537°W)
Time: 12:21:03
(UTC+00:00)

SL-16 R/B - Pass Details

Date: 14 July 2020
Orbit: 839 x 850 km, 71.0° (Epoch: 08 August)

Event Time Altitude Azimuth Distance (km) Brightness Sun altitude
Exits shadow 03:51:41 11° 110° (ESE) 2,403 3.9 -9.5°
Maximum altitude 03:52:52 11° 97° (E) 2,357 4.0 -9.7°
Drops below altitude 10° 03:54:39 10° 78° (ENE) 2,466 4.2 -10.0°
Sets 03:58:58 0° 47° (NE) 3,410 5.2 -10.7°
